| time (UTC) | temp C | wind direction | speed KPH | gust KPH | rain 1hr cm | rain 24hr cm | rain mn cm | humidity % | barometer mb |
| 20260901012408 | 13 | 258 | 8.0 | 11.3 | 0.00 | 1.37 | 0.00 | 45 | 1015.3 |
| 20260901011408 | 13 | 267 | 6.4 | 11.3 | 0.00 | 1.37 | 0.00 | 46 | 1015.2 |
| 20260901010408 | 13 | 247 | 4.8 | 11.3 | 0.00 | 1.37 | 0.00 | 49 | 1015.3 |
| 20260901005408 | 13 | 245 | 4.8 | 12.9 | 0.00 | 1.37 | 0.00 | 50 | 1015.3 |
| 20260901004408 | 13 | 260 | 9.7 | 16.1 | 0.00 | 1.37 | 0.00 | 49 | 1015.3 |
| 20260901003408 | 13 | 253 | 6.4 | 14.5 | 0.00 | 1.37 | 0.00 | 46 | 1015.3 |
| 20260901002408 | 13 | 266 | 6.4 | 14.5 | 0.00 | 1.37 | 0.00 | 48 | 1015.3 |
| 20260901001409 | 14 | 262 | 8.0 | 16.1 | 0.00 | 1.37 | 0.00 | 53 | 1015.2 |
| 20260901000408 | 15 | 245 | 8.0 | 14.5 | 0.00 | 1.37 | 0.00 | 48 | 1015.1 |
| 20260831235408 | 15 | 210 | 6.4 | 12.9 | 0.00 | 1.37 | 0.00 | 45 | 1015.0 |
| 20260831234408 | 15 | 199 | 4.8 | 12.9 | 0.00 | 1.37 | 0.00 | 47 | 1015.1 |
| 20260831233408 | 15 | 183 | 4.8 | 12.9 | 0.00 | 1.37 | 0.00 | 47 | 1015.2 |
| 20260831232408 | 15 | 181 | 6.4 | 14.5 | 0.00 | 1.37 | 0.00 | 45 | 1015.1 |
| 20260831231410 | 15 | 175 | 6.4 | 16.1 | 0.00 | 1.37 | 0.00 | 47 | 1015.3 |
| 20260831230408 | 14 | 196 | 6.4 | 11.3 | 0.00 | 1.37 | 1.37 | 55 | 1015.4 |
| 20260831225408 | 13 | 228 | 8.0 | 16.1 | 0.00 | 1.37 | 1.37 | 54 | 1015.5 |
| 20260831224408 | 13 | 219 | 6.4 | 16.1 | 0.00 | 1.37 | 1.37 | 54 | 1015.7 |
| 20260831223408 | 13 | 210 | 11.3 | 20.9 | 0.00 | 1.37 | 1.37 | 55 | 1015.7 |
| 20260831222408 | 12 | 222 | 11.3 | 17.7 | 0.00 | 1.37 | 1.37 | 59 | 1015.7 |
| 20260831221408 | 12 | 221 | 9.7 | 22.5 | 0.00 | 1.37 | 1.37 | 61 | 1016.0 |
| 20260831220408 | 12 | 222 | 9.7 | 16.1 | 0.00 | 1.37 | 1.37 | 62 | 1016.1 |
| 20260831215408 | 11 | 187 | 9.7 | 19.3 | 0.00 | 1.37 | 1.37 | 58 | 1016.3 |
| 20260831214408 | 12 | 216 | 12.9 | 19.3 | 0.03 | 1.37 | 1.37 | 59 | 1016.4 |
| 20260831213408 | 12 | 220 | 11.3 | 25.7 | 0.05 | 1.37 | 1.37 | 57 | 1016.5 |
| 20260831212408 | 11 | 219 | 11.3 | 25.7 | 0.05 | 1.37 | 1.37 | 57 | 1016.6 |
| 20260831211410 | 11 | 209 | 11.3 | 19.3 | 0.08 | 1.37 | 1.37 | 58 | 1016.8 |
| 20260831210409 | 11 | 221 | 11.3 | 20.9 | 0.10 | 1.37 | 1.37 | 56 | 1017.0 |
| 20260831205408 | 11 | 215 | 1.6 | 17.7 | 0.13 | 1.37 | 1.37 | 59 | 1017.2 |
| 20260831204409 | 11 | 302 | 1.6 | 6.4 | 0.13 | 1.35 | 1.35 | 55 | 1017.3 |
| 20260831203410 | 11 | 294 | 8.0 | 25.7 | 0.10 | 1.32 | 1.32 | 57 | 1017.6 |
| 20260831202408 | 10 | 303 | 19.3 | 27.4 | 0.10 | 1.32 | 1.32 | 62 | 1017.7 |
| 20260831201414 | 10 | 302 | 17.7 | 27.4 | 0.10 | 1.30 | 1.30 | 65 | 1017.8 |
| 20260831200408 | 10 | 298 | 16.1 | 38.6 | 0.10 | 1.27 | 1.27 | 66 | 1017.8 |
| 20260831195409 | 10 | 297 | 22.5 | 40.2 | 0.13 | 1.24 | 1.24 | 66 | 1017.7 |
| 20260831194410 | 10 | 285 | 29.0 | 40.2 | 0.13 | 1.22 | 1.22 | 64 | 1017.8 |
| 20260831193410 | 10 | 287 | 27.4 | 38.6 | 0.13 | 1.22 | 1.22 | 69 | 1017.9 |
| 20260831192409 | 10 | 271 | 25.7 | 33.8 | 0.13 | 1.22 | 1.22 | 70 | 1017.9 |
| 20260831191408 | 9 | 276 | 22.5 | 29.0 | 0.10 | 1.19 | 1.19 | 73 | 1017.8 |
| 20260831190416 | 10 | 266 | 19.3 | 27.4 | 0.08 | 1.17 | 1.17 | 72 | 1017.9 |
| 20260831185411 | 10 | 250 | 19.3 | 29.0 | 0.03 | 1.12 | 1.12 | 69 | 1018.0 |
| 20260831184408 | 10 | 266 | 16.1 | 29.0 | 0.00 | 1.09 | 1.09 | 69 | 1018.0 |
| 20260831183412 | 11 | 263 | 16.1 | 24.1 | 0.00 | 1.09 | 1.09 | 66 | 1017.9 |
| 20260831182409 | 11 | 262 | 20.9 | 25.7 | 0.00 | 1.09 | 1.09 | 65 | 1018.0 |
| 20260831181410 | 11 | 276 | 16.1 | 24.1 | 0.03 | 1.09 | 1.09 | 66 | 1018.1 |
| 20260831180412 | 10 | 318 | 8.0 | 24.1 | 0.03 | 1.09 | 1.09 | 68 | 1018.0 |
| 20260831175409 | 10 | 311 | 14.5 | 22.5 | 0.03 | 1.09 | 1.09 | 68 | 1018.0 |
| 20260831174411 | 10 | 316 | 9.7 | 16.1 | 0.03 | 1.09 | 1.09 | 72 | 1018.2 |
| 20260831173408 | 10 | 331 | 3.2 | 9.7 | 0.03 | 1.09 | 1.09 | 75 | 1018.2 |
| 20260831172408 | 10 | 321 | 6.4 | 14.5 | 0.03 | 1.09 | 1.09 | 74 | 1018.1 |
| 20260831171411 | 10 | 334 | 4.8 | 16.1 | 0.00 | 1.07 | 1.07 | 74 | 1018.0 |
| 20260831170409 | 11 | 300 | 12.9 | 19.3 | 0.00 | 1.07 | 1.07 | 67 | 1017.9 |
| 20260831165408 | 12 | 324 | 6.4 | 14.5 | 0.00 | 1.07 | 1.07 | 57 | 1017.8 |
| 20260831164409 | 12 | 326 | 4.8 | 22.5 | 0.00 | 1.07 | 1.07 | 57 | 1017.6 |
| 20260831163409 | 12 | 309 | 8.0 | 14.5 | 0.00 | 1.07 | 1.07 | 56 | 1017.3 |
| 20260831162409 | 12 | 291 | 12.9 | 22.5 | 0.03 | 1.07 | 1.07 | 53 | 1017.2 |
| 20260831161408 | 11 | 289 | 8.0 | 16.1 | 0.08 | 1.07 | 1.07 | 63 | 1016.9 |
| 20260831160409 | 10 | 12 | 3.2 | 11.3 | 0.13 | 1.07 | 1.07 | 65 | 1016.9 |
| 20260831155412 | 10 | 13 | 6.4 | 16.1 | 0.18 | 1.07 | 1.07 | 63 | 1016.8 |
| 20260831154408 | 10 | 333 | 8.0 | 16.1 | 0.20 | 1.07 | 1.07 | 62 | 1016.8 |
| 20260831153407 | 10 | 47 | 3.2 | 9.7 | 0.25 | 1.07 | 1.07 | 66 | 1017.0 |
| 20260831152408 | 10 | 280 | 1.6 | 11.3 | 0.30 | 1.04 | 1.04 | 61 | 1017.3 |
| 20260831151408 | 10 | 258 | 3.2 | 14.5 | 0.36 | 0.99 | 0.99 | 64 | 1017.9 |
| 20260831150408 | 10 | 303 | 6.4 | 11.3 | 0.43 | 0.94 | 0.94 | 66 | 1017.7 |
| 20260831145412 | 10 | 256 | 3.2 | 12.9 | 0.46 | 0.89 | 0.89 | 75 | 1017.9 |
| 20260831144407 | 9 | 287 | 9.7 | 12.9 | 0.48 | 0.86 | 0.86 | 77 | 1017.7 |
| 20260831143408 | 10 | 239 | 8.0 | 14.5 | 0.48 | 0.81 | 0.81 | 77 | 1017.9 |
| 20260831142408 | 10 | 224 | 9.7 | 16.1 | 0.43 | 0.74 | 0.74 | 77 | 1017.7 |
| 20260831141409 | 10 | 220 | 11.3 | 19.3 | 0.38 | 0.64 | 0.64 | 77 | 1017.8 |
| 20260831140408 | 10 | 219 | 12.9 | 20.9 | 0.30 | 0.51 | 0.51 | 77 | 1017.7 |
| 20260831135407 | 10 | 218 | 11.3 | 19.3 | 0.25 | 0.43 | 0.43 | 76 | 1017.5 |
| 20260831134408 | 10 | 219 | 9.7 | 16.1 | 0.20 | 0.38 | 0.38 | 76 | 1017.5 |
| 20260831133407 | 10 | 200 | 3.2 | 16.1 | 0.15 | 0.33 | 0.33 | 76 | 1017.3 |
| 20260831132410 | 11 | 197 | 4.8 | 9.7 | 0.13 | 0.30 | 0.30 | 75 | 1017.1 |
| 20260831131407 | 11 | 200 | 3.2 | 12.9 | 0.08 | 0.25 | 0.25 | 74 | 1017.0 |
| 20260831130409 | 11 | 212 | 1.6 | 17.7 | 0.03 | 0.20 | 0.20 | 71 | 1016.7 |
| 20260831125408 | 11 | 186 | 4.8 | 16.1 | 0.00 | 0.18 | 0.18 | 74 | 1016.7 |
| 20260831124408 | 11 | 136 | 9.7 | 14.5 | 0.00 | 0.18 | 0.18 | 73 | 1016.6 |
| 20260831123408 | 11 | 154 | 3.2 | 17.7 | 0.03 | 0.18 | 0.18 | 71 | 1016.3 |
| 20260831122407 | 11 | 147 | 6.4 | 16.1 | 0.08 | 0.18 | 0.18 | 65 | 1016.2 |
| 20260831121407 | 12 | 262 | 12.9 | 25.7 | 0.18 | 0.18 | 0.18 | 59 | 1016.1 |
| 20260831120407 | 12 | 291 | 20.9 | 38.6 | 0.18 | 0.18 | 0.18 | 59 | 1015.9 |
| 20260831115408 | 11 | 285 | 29.0 | 40.2 | 0.18 | 0.18 | 0.18 | 62 | 1015.7 |
| 20260831114408 | 11 | 302 | 20.9 | 29.0 | 0.18 | 0.18 | 0.18 | 63 | 1015.5 |
| 20260831113408 | 11 | 292 | 20.9 | 35.4 | 0.15 | 0.15 | 0.15 | 63 | 1015.5 |
| 20260831112407 | 11 | 289 | 29.0 | 38.6 | 0.10 | 0.10 | 0.10 | 66 | 1015.5 |
| 20260831111407 | 12 | 271 | 24.1 | 32.2 | 0.00 | 0.00 | 0.00 | 61 | 1015.7 |
| 20260831110407 | 13 | 305 | 19.3 | 27.4 | 0.00 | 0.00 | 0.00 | 57 | 1015.6 |
| 20260831105409 | 13 | 321 | 12.9 | 20.9 | 0.00 | 0.00 | 0.00 | 62 | 1015.7 |
| 20260831104408 | 13 | 309 | 8.0 | 17.7 | 0.00 | 0.00 | 0.00 | 63 | 1015.8 |
| 20260831103408 | 13 | 342 | 4.8 | 19.3 | 0.00 | 0.00 | 0.00 | 67 | 1015.8 |
| 20260831102408 | 12 | 18 | 1.6 | 17.7 | 0.00 | 0.00 | 0.00 | 68 | 1015.7 |
| 20260831101411 | 12 | 33 | 8.0 | 19.3 | 0.00 | 0.00 | 0.00 | 70 | 1015.6 |
| 20260831100411 | 12 | 32 | 6.4 | 17.7 | 0.00 | 0.00 | 0.00 | 73 | 1015.6 |
| 20260831095407 | 12 | 44 | 9.7 | 22.5 | 0.00 | 0.00 | 0.00 | 74 | 1015.5 |
| 20260831094108 | 13 | 337 | 6.4 | 25.7 | 0.00 | 0.00 | 0.00 | 72 | 1015.5 |
| 20260831093106 | 14 | 271 | 14.5 | 19.3 | 0.00 | 0.00 | 0.00 | 63 | 1015.8 |
| 20260831092106 | 15 | 284 | 9.7 | 20.9 | 0.00 | 0.00 | 0.00 | 58 | 1015.7 |
| 20260831091106 | 15 | 300 | 6.4 | 16.1 | 0.00 | 0.00 | 0.00 | 58 | 1015.7 |
| 20260831090106 | 15 | 301 | 6.4 | 12.9 | 0.00 | 0.00 | 0.00 | 57 | 1015.7 |
| 20260831085106 | 15 | 286 | 4.8 | 11.3 | 0.00 | 0.00 | 0.00 | 56 | 1015.6 |
| 20260831084106 | 16 | 277 | 1.6 | 9.7 | 0.00 | 0.00 | 0.00 | 54 | 1015.8 |
| 20260831083106 | 16 | 233 | 3.2 | 6.4 | 0.00 | 0.00 | 0.00 | 53 | 1015.8 |
| 20260831082106 | 16 | 0 | 0.0 | 0.0 | 0.00 | 0.00 | 0.00 | 55 | 1015.9 |
| 20260831081106 | 16 | 0 | 0.0 | 0.0 | 0.00 | 0.00 | 0.00 | 54 | 1015.9 |
| 20260831080106 | 15 | 0 | 0.0 | 3.2 | 0.00 | 0.00 | 0.00 | 54 | 1016.0 |
| 20260831075106 | 15 | 345 | 3.2 | 11.3 | 0.00 | 0.00 | 0.00 | 58 | 1015.9 |
| 20260831074106 | 15 | 328 | 3.2 | 12.9 | 0.00 | 0.00 | 0.00 | 58 | 1015.9 |
| 20260831073106 | 15 | 319 | 6.4 | 12.9 | 0.00 | 0.00 | 0.00 | 56 | 1016.1 |
| 20260831072109 | 16 | 328 | 3.2 | 8.0 | 0.00 | 0.00 | 0.00 | 53 | 1016.2 |
| 20260831071106 | 16 | 311 | 4.8 | 11.3 | 0.00 | 0.00 | 0.00 | 52 | 1016.3 |
| 20260831070106 | 16 | 0 | 0.0 | 0.0 | 0.00 | 0.00 | 0.00 | 51 | 1016.3 |
| 20260831065109 | 16 | 0 | 0.0 | 4.8 | 0.00 | 0.03 | 0.00 | 52 | 1016.4 |
| 20260831064106 | 15 | 0 | 0.0 | 9.7 | 0.00 | 0.05 | 0.00 | 55 | 1016.3 |
| 20260831063106 | 15 | 327 | 1.6 | 17.7 | 0.00 | 0.13 | 0.00 | 57 | 1016.3 |
| 20260831062106 | 15 | 332 | 4.8 | 12.9 | 0.00 | 0.13 | 0.00 | 59 | 1016.2 |
| 20260831061106 | 15 | 316 | 3.2 | 9.7 | 0.00 | 0.15 | 0.00 | 59 | 1016.2 |
| 20260831060106 | 15 | 0 | 0.0 | 16.1 | 0.00 | 0.20 | 0.00 | 60 | 1016.0 |
| 20260831055106 | 14 | 325 | 8.0 | 20.9 | 0.00 | 0.25 | 0.00 | 62 | 1016.1 |
| 20260831054109 | 14 | 315 | 12.9 | 27.4 | 0.00 | 0.28 | 0.00 | 63 | 1016.2 |
| 20260831053108 | 15 | 309 | 16.1 | 27.4 | 0.00 | 0.33 | 0.00 | 63 | 1016.1 |
| 20260831052109 | 16 | 306 | 14.5 | 29.0 | 0.00 | 0.38 | 0.00 | 57 | 1016.1 |
| 20260831051106 | 16 | 302 | 12.9 | 20.9 | 0.00 | 0.46 | 0.00 | 50 | 1016.2 |
| 20260831050109 | 16 | 305 | 12.9 | 20.9 | 0.00 | 0.48 | 0.00 | 51 | 1016.4 |
| 20260831045107 | 16 | 307 | 14.5 | 20.9 | 0.00 | 0.58 | 0.00 | 51 | 1016.4 |
| 20260831044107 | 16 | 303 | 14.5 | 20.9 | 0.00 | 0.94 | 0.00 | 50 | 1016.4 |
| 20260831043106 | 16 | 299 | 11.3 | 20.9 | 0.00 | 0.97 | 0.00 | 50 | 1016.5 |
| 20260831042106 | 16 | 307 | 12.9 | 19.3 | 0.00 | 1.04 | 0.00 | 50 | 1016.5 |
| 20260831041106 | 16 | 305 | 14.5 | 19.3 | 0.00 | 1.50 | 0.00 | 50 | 1016.5 |
| 20260831040108 | 16 | 306 | 12.9 | 17.7 | 0.00 | 2.01 | 0.00 | 50 | 1016.5 |
| 20260831035106 | 16 | 305 | 11.3 | 16.1 | 0.00 | 2.11 | 0.00 | 49 | 1016.5 |
| 20260831034106 | 16 | 315 | 6.4 | 16.1 | 0.00 | 2.18 | 0.00 | 49 | 1016.5 |
| 20260831033106 | 16 | 299 | 9.7 | 14.5 | 0.00 | 2.64 | 0.00 | 49 | 1016.4 |
| 20260831032109 | 16 | 299 | 11.3 | 16.1 | 0.00 | 2.67 | 0.00 | 49 | 1016.3 |
| 20260831031107 | 16 | 306 | 11.3 | 16.1 | 0.00 | 2.67 | 0.00 | 48 | 1016.2 |
| 20260831030106 | 16 | 301 | 11.3 | 16.1 | 0.00 | 2.67 | 0.00 | 48 | 1016.1 |
| 20260831025106 | 16 | 309 | 8.0 | 12.9 | 0.00 | 2.67 | 0.00 | 49 | 1016.1 |
| 20260831024106 | 16 | 306 | 9.7 | 14.5 | 0.00 | 2.67 | 0.00 | 49 | 1015.9 |
| 20260831023106 | 16 | 308 | 8.0 | 14.5 | 0.00 | 2.67 | 0.00 | 47 | 1015.8 |
| 20260831022106 | 16 | 314 | 8.0 | 16.1 | 0.00 | 2.67 | 0.00 | 48 | 1015.5 |
| 20260831021106 | 16 | 306 | 11.3 | 16.1 | 0.00 | 2.67 | 0.00 | 48 | 1015.5 |
| 20260831020106 | 16 | 311 | 8.0 | 12.9 | 0.00 | 2.67 | 0.00 | 49 | 1015.4 |
| 20260831015106 | 17 | 312 | 8.0 | 14.5 | 0.00 | 2.67 | 0.00 | 48 | 1015.4 |
| 20260831014106 | 17 | 310 | 6.4 | 12.9 | 0.00 | 2.67 | 0.00 | 48 | 1015.4 |
| 20260831013106 | 17 | 309 | 8.0 | 16.1 | 0.00 | 2.67 | 0.00 | 47 | 1015.3 |